GFSSE_500_spd_273.txt.gz
Wind_Speed
32 33 32 32 33 34 36 35 32 30 26 22 19 18 17 18 20 21 20 19 18 15 13 10 11 9 10 9 8 8 6 6 6 6 5 5 5 5 6 7 7 7 8
34 35 36 35 35 35 38 38 36 32 30 26 23 20 19 16 18 19 21 19 21 16 15 14 11 10 9 10 9 9 6 6 6 6 8 7 6 6 6 7 8 8 10
37 38 37 37 37 38 39 39 38 36 32 30 27 24 20 18 16 16 20 21 21 19 16 17 14 12 10 10 10 9 7 7 9 9 7 7 7 7 7 7 9 10 11
36 38 38 39 40 41 41 39 38 37 36 32 31 28 25 19 16 17 18 22 21 21 18 18 17 13 11 11 11 10 8 9 10 10 9 9 8 8 8 9 10 11 12
39 39 40 40 41 42 41 40 40 39 38 37 35 31 27 22 18 18 19 22 26 23 20 18 18 16 14 12 12 11 9 10 11 10 11 11 10 10 10 11 10 11 12
43 42 43 44 44 43 41 41 42 42 41 40 37 36 32 24 22 19 17 19 22 25 24 20 19 19 16 14 14 12 10 11 12 13 10 11 11 11 11 10 11 11 11
45 45 45 46 46 45 43 45 45 44 42 40 40 39 36 31 26 22 22 21 21 24 25 23 21 19 19 16 16 14 13 14 15 15 14 12 12 11 12 11 11 11 11
49 50 50 49 48 47 47 48 49 47 43 43 43 41 39 36 31 27 25 23 22 23 27 26 24 21 21 19 18 16 15 16 18 20 19 15 14 14 13 12 12 12 12
50 51 53 52 52 51 49 50 49 49 47 43 43 44 42 40 38 32 29 27 25 26 28 27 24 26 23 22 20 20 19 19 18 22 24 18 16 16 15 14 13 13 13
53 51 53 54 54 55 54 53 52 52 51 48 48 47 43 47 43 37 34 30 29 30 34 30 28 33 24 25 24 22 22 20 19 21 26 20 19 17 17 15 14 14 14
56 55 54 54 55 56 57 57 57 56 57 55 54 53 51 48 47 43 33 35 36 33 35 33 30 34 25 27 27 25 24 23 20 25 16 18 21 20 18 17 15 13 14
53 54 54 55 56 56 58 60 60 60 61 58 59 59 54 50 50 44 40 35 39 40 38 37 33 39 25 29 30 28 25 27 22 25 27 25 23 23 20 18 15 14 15
53 53 52 52 53 55 58 59 61 63 64 65 61 66 47 56 50 50 43 40 41 42 41 39 37 37 31 31 34 30 30 31 28 28 27 27 25 23 22 19 17 15 16
56 56 57 58 56 56 55 57 61 62 64 66 68 65 63 67 50 50 48 47 45 46 44 44 41 39 42 33 37 34 34 33 34 29 33 33 28 25 23 21 20 18 18
55 57 59 60 61 62 62 60 60 61 63 65 68 70 69 67 66 61 61 47 50 48 47 46 48 47 44 40 40 38 38 36 35 31 28 33 31 26 24 23 22 21 20
51 54 55 57 58 58 59 61 63 63 62 62 66 68 70 70 69 67 61 53 53 55 53 54 53 53 53 48 42 44 44 41 38 35 32 24 28 28 25 25 24 23 22
43 45 47 50 52 52 51 51 53 57 60 64 64 65 69 70 70 69 67 64 60 56 59 58 51 60 53 60 47 49 49 45 41 39 34 35 34 32 30 27 26 26 24
45 47 48 47 46 45 46 45 44 44 49 53 61 65 66 69 71 71 69 67 67 56 67 53 53 37 54 55 55 53 52 50 45 42 42 40 41 37 32 31 29 29 26
47 50 53 52 47 41 38 37 38 39 40 43 46 54 64 67 69 73 73 70 69 72 71 68 61 44 49 52 57 50 56 57 50 44 45 42 37 36 36 35 32 31 29
47 50 53 55 50 45 44 40 38 38 38 37 38 40 48 58 66 70 72 74 72 71 69 67 64 57 50 50 58 52 61 56 53 46 44 41 48 43 41 38 36 33 31
50 52 54 55 52 44 42 42 42 41 40 38 37 31 35 40 47 63 70 70 73 74 72 67 61 62 54 52 63 59 62 59 56 47 48 43 47 47 44 43 38 36 34
51 52 52 54 53 45 41 39 41 42 42 41 38 38 32 31 33 31 43 65 69 71 74 71 61 63 54 43 50 67 66 63 59 40 45 48 50 45 47 44 41 38 36
50 52 53 55 55 52 45 38 38 38 42 42 41 38 38 34 28 29 29 29 55 70 70 73 71 68 65 59 53 63 58 62 58 55 42 51 51 48 51 48 43 39 38
51 53 54 55 56 56 52 42 38 34 34 38 39 39 39 38 37 31 28 23 26 49 71 70 69 75 72 57 60 59 56 59 49 55 46 55 51 53 49 50 46 43 41
49 51 53 55 57 57 57 47 38 32 33 33 36 36 37 35 35 37 32 28 25 26 51 68 68 69 72 71 66 58 57 57 61 55 52 54 55 51 51 49 47 46 44
50 50 52 54 56 58 59 54 39 34 33 31 32 34 33 34 32 33 33 34 30 28 30 49 65 69 67 72 76 63 57 59 58 55 61 41 50 52 49 49 48 49 47

GFSSE_500_spd_276.txt.gz
Wind_Speed
33 34 35 35 35 35 35 36 36 35 35 32 28 24 20 19 18 19 20 20 21 22 22 21 20 17 16 15 13 15 13 12 10 10 9 10 9 10 8 7 7 7 8
36 37 38 40 41 40 39 38 39 40 40 36 31 27 24 21 19 19 18 19 19 21 21 22 21 20 19 16 15 14 14 12 10 11 11 10 11 10 8 8 8 9 9
39 40 42 44 45 45 42 40 40 43 44 39 34 30 27 24 22 20 18 18 20 21 21 22 22 21 20 19 16 15 14 12 11 12 12 11 11 9 10 9 9 10 11
36 38 41 44 46 47 45 42 44 46 45 43 40 34 31 27 25 22 21 20 21 23 26 23 23 21 22 21 16 15 14 12 11 11 13 13 11 11 10 10 11 11 12
41 40 41 42 44 46 46 46 47 45 45 44 43 39 35 32 28 25 22 23 23 23 24 26 25 22 22 22 18 16 14 14 13 12 14 14 14 12 12 12 11 12 13
47 46 45 44 45 46 47 47 47 45 45 45 45 43 40 35 32 30 27 24 23 23 23 25 25 25 23 22 20 18 15 15 16 16 14 14 15 14 13 13 12 13 14
50 50 49 49 48 47 48 48 48 46 46 48 46 46 44 42 38 36 30 28 27 25 26 24 26 26 26 24 22 19 18 17 20 19 18 15 16 16 16 15 14 14 14
50 51 51 52 52 51 49 49 49 49 47 49 49 47 46 46 44 39 35 33 30 29 28 25 26 28 27 26 22 21 21 19 21 20 20 19 18 18 18 16 15 15 15
54 54 53 54 54 54 53 52 52 51 50 51 53 53 50 48 47 46 40 35 34 33 30 27 27 29 31 30 25 23 22 22 21 22 23 22 20 21 20 19 17 16 15
51 52 52 51 51 53 55 56 55 55 55 54 55 54 54 52 49 48 48 40 38 39 36 32 30 31 33 32 28 25 24 24 24 25 26 28 24 22 22 21 19 17 16
52 52 53 53 53 52 53 55 57 59 58 58 57 56 56 55 53 52 51 49 45 42 37 36 33 34 35 33 29 29 26 26 27 23 29 30 28 26 24 21 20 18 18
53 53 54 55 56 56 56 55 57 58 60 61 61 61 60 59 58 57 58 54 54 48 42 40 41 37 35 35 34 32 28 28 29 25 29 34 29 29 28 23 20 18 18
52 54 56 57 58 58 59 60 60 60 61 62 64 65 65 63 65 60 62 55 58 56 50 42 40 42 33 39 40 34 31 31 32 27 29 30 36 32 30 27 22 20 18
45 47 48 49 50 52 52 55 59 62 63 64 65 66 68 68 66 65 71 71 54 54 54 48 44 41 39 41 43 36 37 34 34 30 30 32 39 33 30 30 25 22 20
42 41 41 42 43 44 46 47 51 52 59 64 66 67 68 70 71 71 73 71 66 53 53 50 51 42 41 41 43 39 42 37 37 31 31 30 29 32 33 31 28 24 22
35 36 36 37 40 41 43 45 46 48 48 52 61 68 68 70 73 73 76 71 64 59 71 56 53 48 45 42 45 44 41 44 41 35 34 36 36 36 36 33 29 26 24
36 39 41 43 45 47 49 50 49 47 47 46 46 58 66 69 72 75 75 75 72 67 67 55 55 56 48 50 47 47 48 47 46 39 37 39 31 38 42 35 29 28 27
39 42 44 47 48 50 51 52 52 50 49 45 41 45 52 61 69 74 75 76 74 70 70 69 66 47 56 53 54 48 48 49 51 44 41 41 43 31 45 34 30 29 29
42 44 46 47 50 51 53 53 53 52 49 45 40 41 41 41 53 67 73 75 75 74 75 68 77 58 64 58 57 41 55 59 56 51 45 45 39 37 31 34 33 32 32
46 47 48 49 50 50 51 50 51 53 49 45 43 40 39 36 35 44 60 72 75 77 74 71 63 69 58 50 35 61 55 57 55 57 51 47 47 42 45 41 37 35 35
48 48 49 49 50 50 50 49 48 49 46 44 43 42 41 38 35 32 38 53 71 75 76 74 73 69 66 55 50 40 52 60 58 57 56 51 49 47 43 45 39 38 37
49 50 49 48 49 50 51 51 51 52 53 46 39 39 40 39 37 34 29 32 48 71 74 76 75 70 43 71 58 54 57 56 61 57 58 53 52 52 47 47 45 42 40
49 49 49 50 50 51 53 53 53 55 56 47 40 36 33 39 38 35 34 30 32 46 71 74 75 71 71 69 58 51 61 50 65 58 57 56 58 54 50 49 50 46 44
49 50 50 51 52 54 55 56 55 57 54 48 35 35 33 33 36 33 32 31 31 32 45 70 73 73 72 70 64 63 58 50 59 55 58 57 58 57 51 51 54 52 48
49 50 50 53 55 56 57 59 59 60 61 51 33 31 31 31 32 34 32 32 33 33 31 46 62 71 72 75 62 71 63 57 47 63 66 58 57 59 54 50 55 55 52
48 49 52 54 56 59 60 62 62 64 64 47 30 27 29 28 28 28 31 31 32 34 36 33 45 60 70 73 77 69 72 58 51 50 59 64 60 53 58 55 50 58 55

GFSSE_500_spd_279.txt.gz
Wind_Speed
37 36 39 38 37 36 32 40 41 42 42 40 35 33 32 28 28 25 22 21 21 20 21 21 21 20 20 21 20 17 15 14 12 14 14 16 14 12 10 9 9 10 11
40 40 38 37 36 38 40 42 43 44 45 43 42 39 35 32 28 26 25 24 22 22 23 22 22 22 21 21 22 19 16 15 13 14 15 14 13 12 11 10 9 11 12
40 38 40 41 45 47 45 46 45 46 44 44 44 44 41 36 35 27 26 25 25 25 25 24 23 23 22 20 21 22 17 16 13 15 16 14 13 12 11 11 12 12 13
40 40 40 41 44 47 49 49 48 47 46 46 45 47 44 39 36 36 31 28 28 27 28 27 24 24 23 20 20 21 18 17 14 15 15 15 15 14 13 13 13 14 14
46 47 46 45 45 47 49 51 51 49 46 46 48 47 47 44 39 40 38 31 30 30 29 28 26 26 25 22 18 22 20 19 16 16 16 15 16 16 15 14 14 14 14
49 49 49 48 48 48 49 50 52 52 49 48 48 47 48 47 45 42 42 37 32 32 31 30 28 27 25 24 21 20 22 19 18 18 16 16 18 18 17 16 16 15 15
49 49 50 51 51 51 50 50 51 51 51 50 50 49 53 50 51 47 46 40 38 34 33 32 32 30 27 26 24 19 22 22 20 20 18 18 18 19 19 18 17 16 16
51 52 52 52 52 53 53 52 51 51 51 52 52 51 51 53 52 49 50 44 40 37 36 35 34 35 31 28 27 25 22 23 21 21 20 20 20 20 20 19 18 18 17
52 51 51 50 50 50 51 52 53 53 53 53 54 55 57 54 55 53 51 49 45 41 38 38 39 36 36 33 33 27 20 24 23 23 22 22 23 22 22 21 20 19 17
51 51 50 50 51 52 52 53 53 52 54 55 55 56 59 60 58 56 55 55 50 45 40 42 41 41 39 37 37 29 26 25 25 25 24 24 25 24 23 24 23 20 19
51 52 53 54 54 54 55 55 56 56 56 55 57 58 59 62 64 63 59 57 56 51 44 46 45 48 43 41 40 35 27 25 27 26 26 27 26 26 26 27 25 23 21
50 51 50 51 51 52 52 52 53 53 55 58 59 59 61 63 65 66 65 60 59 54 50 49 50 50 48 45 44 35 30 24 30 28 29 30 32 30 28 29 28 25 23
47 49 50 50 49 48 48 46 46 46 49 52 55 61 63 65 66 67 69 65 60 64 54 56 52 54 51 46 48 41 35 27 28 32 33 34 29 34 32 33 31 27 25
44 43 43 43 43 42 42 42 43 43 41 41 47 54 60 67 68 68 70 69 68 63 61 61 60 53 53 51 45 49 41 32 29 35 34 32 42 38 37 35 33 30 27
39 39 39 40 41 42 43 44 45 46 46 45 43 44 51 62 69 70 72 73 74 69 63 65 62 65 53 55 44 46 46 40 33 33 32 31 26 30 41 38 35 32 29
37 39 42 44 44 45 46 47 49 50 48 47 47 48 43 48 62 71 73 74 77 78 76 71 61 55 60 63 51 44 46 45 37 37 34 36 35 35 42 41 37 34 32
38 41 44 45 45 45 49 51 52 53 52 49 47 47 46 43 48 62 73 77 78 82 82 83 60 65 63 58 52 51 46 49 40 40 39 38 38 39 48 46 42 36 34
41 45 48 47 46 49 52 53 55 55 54 51 47 47 46 44 41 47 59 74 80 82 82 81 78 69 66 61 56 57 50 49 43 41 43 41 36 36 48 49 43 37 34
44 48 49 48 49 50 52 55 56 55 56 53 50 47 46 45 42 42 42 57 76 82 82 80 79 72 67 62 60 63 60 47 46 46 43 46 42 39 40 42 44 41 37
47 50 49 49 50 52 53 55 56 57 57 56 53 52 46 46 41 42 41 41 54 76 79 77 79 78 70 64 64 74 65 57 51 48 44 49 46 43 38 43 46 44 41
47 49 48 49 51 52 55 57 55 55 56 56 54 53 48 50 42 41 43 38 40 53 61 71 76 75 74 54 61 40 69 60 56 45 54 49 52 46 44 50 49 47 44
47 48 47 49 50 54 58 58 57 60 61 60 57 55 54 51 40 39 42 39 37 40 48 49 71 76 74 81 59 61 47 65 58 45 46 39 48 51 51 45 46 57 49
47 47 47 49 52 58 61 62 60 62 64 62 59 61 59 46 34 35 36 36 37 36 39 37 53 70 75 76 66 57 68 56 56 51 59 54 44 51 51 42 42 49 41
46 47 49 51 57 63 65 66 65 67 69 66 62 61 45 36 32 30 31 35 37 37 37 35 36 54 68 72 70 83 53 49 55 45 62 50 52 56 47 48 47 44 46
46 48 50 54 62 66 69 67 67 70 72 72 67 46 31 26 27 29 28 29 33 32 36 37 33 38 52 66 72 63 67 52 57 50 55 52 59 58 53 53 51 50 51
46 48 51 57 66 68 67 68 69 72 73 74 60 35 24 22 21 25 26 29 30 32 34 37 35 34 41 55 68 69 68 63 57 50 51 48 58 53 51 55 53 55 57

GFSSE_500_spd_285.txt.gz
Wind_Speed
39 40 40 42 43 43 41 42 42 43 43 44 42 44 42 41 40 38 36 34 31 28 28 28 27 24 21 16 15 15 15 14 13 13 12 14 14 13 12 13 10 5 7
40 41 43 43 45 46 48 47 43 44 45 45 44 43 42 45 40 43 39 35 37 34 30 30 30 28 25 21 18 15 16 16 15 14 14 15 15 15 15 16 16 11 11
42 43 45 47 46 46 46 45 46 46 45 46 45 45 47 45 45 43 43 41 40 37 33 31 31 32 30 24 21 19 15 16 15 16 15 17 18 19 18 17 17 14 15
46 47 48 46 45 44 44 42 42 43 45 46 46 47 48 48 48 47 45 45 45 41 38 35 34 32 33 30 25 21 18 16 15 16 16 15 18 20 19 18 18 17 17
47 46 45 45 44 43 42 42 42 42 43 44 47 48 48 49 49 49 50 48 48 47 44 39 36 34 32 31 28 25 22 19 18 16 17 18 19 20 19 20 19 20 20
44 43 42 43 43 44 44 44 43 43 43 44 44 47 50 51 50 51 51 52 51 52 51 47 39 36 32 32 30 27 25 21 19 18 19 20 20 22 21 21 22 23 23
42 43 45 45 45 43 42 41 41 41 42 43 44 46 46 49 52 53 53 54 54 56 53 50 45 39 34 34 34 30 27 24 21 21 21 21 22 22 23 23 25 25 25
42 44 44 43 42 42 42 41 41 40 40 40 39 40 44 48 50 53 53 55 57 57 56 54 51 47 41 38 37 35 30 26 24 25 22 23 24 24 24 26 28 28 28
41 40 40 40 40 41 42 42 42 42 42 42 41 39 37 40 45 52 56 55 56 59 58 57 55 51 51 41 39 37 34 31 28 29 26 26 25 25 26 29 30 30 30
40 40 40 40 41 41 42 42 43 43 43 43 43 43 43 41 40 43 53 59 58 58 62 58 58 51 50 50 41 43 37 38 33 34 30 27 25 27 28 30 31 32 31
38 37 37 38 40 41 42 43 43 43 43 43 44 45 45 44 43 41 42 50 61 61 61 61 59 66 51 51 41 44 45 39 38 37 32 30 27 29 30 32 33 33 33
36 35 36 38 39 40 42 43 43 43 42 42 43 44 44 44 44 44 42 45 49 63 65 63 66 57 64 54 54 46 49 44 42 39 35 34 30 32 32 33 34 34 35
32 34 36 38 40 41 42 42 42 42 43 45 47 47 48 49 49 48 47 44 48 52 66 68 67 66 65 51 62 51 49 49 42 41 39 38 36 35 35 35 36 36 36
32 35 38 41 43 43 41 41 43 43 46 49 51 51 52 54 54 52 52 52 48 50 57 70 70 72 71 68 52 55 52 51 45 39 40 40 43 38 38 38 38 38 37
34 37 40 42 42 40 38 41 44 48 50 52 55 57 57 57 57 57 57 55 56 52 53 61 73 75 77 63 63 61 60 53 49 41 41 41 45 42 41 41 41 40 38
36 40 42 41 39 37 40 44 48 50 56 61 62 64 62 61 60 58 58 61 59 58 56 59 66 78 78 78 59 68 54 54 53 45 38 40 43 46 44 44 45 43 40
40 41 39 38 35 38 44 48 52 58 62 63 66 65 63 64 63 62 63 66 64 61 59 59 63 74 84 79 79 61 54 56 66 53 42 41 42 47 46 45 45 46 44
40 38 38 35 36 42 47 53 59 63 64 67 66 65 65 66 68 70 71 68 64 60 59 59 61 66 82 85 81 77 62 62 61 54 48 41 44 47 44 45 45 49 46
37 36 36 35 40 46 52 59 63 65 67 69 68 68 69 72 77 82 69 55 54 52 56 58 60 63 73 86 83 75 65 69 66 59 53 45 46 45 51 48 40 44 49
35 36 34 37 43 49 56 61 64 66 70 71 71 72 74 79 84 72 49 38 38 44 49 53 56 60 64 82 87 82 70 63 71 60 57 48 46 52 48 51 47 43 53
34 33 34 40 46 53 59 62 66 70 72 73 74 75 77 81 79 52 38 30 29 38 42 45 50 52 57 69 85 86 81 70 76 66 59 51 47 47 48 50 43 49 53
33 34 38 44 50 57 62 65 68 71 72 72 74 77 79 77 66 42 35 27 19 33 36 39 42 44 48 55 78 89 80 72 72 68 59 59 53 49 52 49 46 47 53
34 35 40 47 53 59 63 65 69 69 70 72 73 76 77 75 52 40 33 25 14 21 31 37 38 40 41 46 63 82 80 84 71 71 63 58 55 53 55 56 54 53 54
34 37 43 49 56 60 63 66 69 69 70 73 75 76 75 72 46 36 30 21 11 9 19 27 34 37 34 36 46 71 84 83 88 75 57 56 61 61 52 59 54 54 49
35 39 45 51 57 59 64 68 68 69 71 73 74 74 72 68 40 33 27 17 9 5 12 19 29 34 32 30 36 52 76 81 79 80 73 57 59 60 53 56 55 58 55
35 40 46 53 56 60 65 67 67 69 72 73 74 72 70 66 36 28 24 16 8 4 8 18 25 31 30 30 33 43 57 76 73 70 72 54 53 64 61 59 56 58 52

GFSSE_500_spd_288.txt.gz
Wind_Speed
40 41 41 43 44 45 46 45 44 43 41 40 39 39 40 39 38 38 37 37 35 35 30 29 27 28 26 24 21 18 16 15 14 15 17 17 15 15 15 12 13 7 7
41 41 42 43 44 46 46 45 44 42 42 41 41 41 42 42 42 39 40 42 40 39 37 33 31 30 30 27 24 22 19 17 15 15 17 18 17 17 17 17 14 9 10
42 44 45 45 44 43 42 41 42 42 42 42 42 42 43 42 43 43 43 44 45 44 43 40 35 32 32 31 28 26 24 20 18 17 18 20 19 20 22 18 16 13 13
45 46 44 43 42 42 42 42 41 41 41 41 40 41 41 41 42 45 44 45 46 46 46 43 43 37 36 34 31 29 26 24 22 19 19 21 23 25 18 18 18 16 16
47 45 43 42 41 40 40 40 40 40 40 38 38 38 40 40 40 42 44 45 46 47 48 48 46 45 41 38 36 31 28 27 25 22 22 22 24 20 21 21 20 20 20
43 42 41 41 40 41 39 38 38 37 37 38 38 38 38 39 42 43 44 44 45 48 49 50 49 48 46 46 40 32 30 29 29 24 24 22 24 20 23 23 23 22 23
41 40 40 40 39 39 39 38 37 38 37 35 35 35 35 36 38 42 45 47 48 48 51 51 51 51 50 48 44 36 32 33 30 28 26 24 23 23 25 25 25 25 26
39 39 38 39 39 38 38 39 39 38 37 36 37 37 36 35 36 38 41 48 52 52 52 53 53 53 54 52 48 39 38 34 35 31 28 25 24 25 26 26 26 28 28
37 37 36 37 37 38 38 38 37 37 36 36 36 36 37 37 37 38 38 42 48 53 54 54 55 55 55 56 49 49 43 40 39 37 30 30 31 27 26 26 28 31 31
36 37 37 36 37 37 38 39 39 38 39 39 39 39 38 38 39 39 38 39 42 47 51 56 55 58 59 56 54 47 51 42 40 40 36 34 34 28 28 28 30 33 34
35 35 35 35 36 38 39 37 37 37 38 38 38 39 40 41 40 41 42 41 40 43 48 51 56 58 60 57 60 51 47 53 45 42 38 37 34 31 30 30 33 35 36
33 33 34 35 37 38 35 36 35 37 38 40 40 42 43 46 46 46 44 43 44 43 45 51 54 59 63 64 53 58 54 55 50 41 40 37 33 36 33 31 35 38 38
31 33 34 36 38 37 37 36 37 38 41 40 42 46 52 54 54 53 51 50 49 47 46 48 53 57 65 69 72 57 62 55 52 45 45 39 35 41 36 35 37 39 40
30 33 36 37 38 38 37 38 40 43 42 45 49 56 57 57 57 55 53 52 53 52 52 47 51 56 62 72 71 69 59 56 52 50 42 36 37 43 39 38 39 41 41
33 35 37 39 39 38 37 39 41 43 47 52 59 61 62 60 58 56 55 55 54 56 58 57 54 54 61 69 73 70 76 62 61 57 48 40 40 44 44 43 42 43 43
34 36 37 39 39 37 38 41 44 49 55 61 63 65 65 62 60 58 58 59 59 60 63 64 63 61 58 69 70 74 71 62 60 59 54 46 41 47 49 47 45 44 45
35 36 39 39 37 37 40 45 51 56 62 64 66 66 66 64 64 64 65 68 72 73 75 76 72 69 68 66 71 76 72 65 59 59 60 48 44 49 51 52 49 47 47
34 37 39 37 35 39 44 50 56 61 65 66 67 68 67 68 69 71 74 81 83 71 65 72 79 78 75 69 69 71 75 59 66 57 63 50 45 46 54 57 52 51 50
35 38 37 34 37 42 48 54 59 64 66 69 70 70 70 71 74 76 80 75 57 48 43 47 61 77 74 71 68 73 79 79 68 67 64 57 49 42 52 56 52 54 54
35 35 32 35 40 46 52 58 63 65 69 71 71 71 73 74 76 78 73 49 42 39 32 33 45 61 68 67 65 72 77 75 67 70 52 67 59 44 46 50 53 55 57
32 31 32 37 43 49 56 60 64 67 71 73 72 74 75 77 76 74 55 37 35 32 24 22 35 49 54 60 61 68 75 84 73 65 68 65 65 52 47 53 54 53 55
30 29 34 40 46 53 58 62 65 69 72 73 74 75 77 77 76 66 39 33 29 24 14 12 25 37 44 50 54 62 73 81 77 69 73 70 59 56 50 58 53 54 51
28 31 37 42 49 55 60 63 66 69 72 73 74 76 78 78 76 55 30 28 23 15 8 7 18 28 35 42 45 54 65 80 81 75 81 66 59 62 53 62 52 55 52
27 32 38 44 51 57 60 63 67 70 72 74 76 78 78 78 69 42 25 24 17 9 4 3 10 20 30 36 39 47 61 75 87 75 76 72 56 58 53 54 49 51 51
28 34 40 47 53 57 60 64 67 70 73 75 77 79 80 78 58 30 21 20 11 5 1 4 6 14 25 30 34 42 54 68 86 82 82 74 57 58 64 60 45 56 56
29 37 42 49 53 56 60 64 67 69 72 75 77 80 81 73 44 21 19 17 8 3 2 5 6 10 19 27 30 37 48 61 84 92 77 73 68 72 65 56 62 52 46

GFSSE_500_spd_291.txt.gz
Wind_Speed
44 45 47 48 48 49 49 47 44 43 41 40 40 39 38 38 38 37 36 37 37 37 38 35 32 29 29 27 27 25 26 24 22 19 19 20 21 21 21 19 15 11 4
46 48 49 49 49 46 43 42 42 42 42 42 41 40 39 38 39 39 39 40 39 40 41 40 38 34 32 30 28 27 27 27 25 23 21 21 21 22 23 20 15 11 7
48 50 50 48 46 43 42 41 41 40 40 40 40 40 39 38 37 40 40 40 42 41 43 43 42 40 37 35 29 28 29 29 29 26 25 23 22 25 18 22 21 15 10
50 50 48 45 43 42 42 40 41 42 41 40 40 40 38 38 38 38 40 40 41 42 44 43 45 42 40 38 36 32 33 33 29 30 28 26 25 26 29 23 21 13 13
49 46 43 42 41 41 41 42 42 40 38 38 37 36 35 35 35 37 38 40 41 43 45 45 45 46 45 43 42 38 37 35 33 31 31 29 27 26 27 26 17 15 15
46 43 41 41 41 41 40 38 36 36 36 36 35 35 35 34 33 33 34 38 41 44 45 47 47 47 49 46 45 41 44 42 36 33 33 32 29 30 28 28 19 16 17
42 40 40 39 40 39 38 38 37 37 37 36 37 36 36 36 36 36 36 37 37 40 45 47 48 50 49 49 49 46 41 44 35 37 36 34 33 30 27 23 22 19 20
39 39 39 39 39 38 37 38 38 38 38 38 36 35 34 33 33 35 36 39 40 41 42 43 48 52 53 50 51 50 45 45 42 38 39 37 35 33 29 26 23 23 23
38 38 38 38 36 36 37 37 37 38 38 36 35 34 34 34 36 37 37 39 41 42 43 44 44 47 53 54 52 50 51 47 42 40 42 40 38 34 28 28 26 26 26
37 37 36 35 36 37 37 37 38 38 36 35 34 36 36 36 37 38 40 41 42 43 44 46 47 46 49 55 56 57 54 49 42 48 42 44 37 34 30 33 28 28 29
35 34 35 36 37 38 38 38 38 36 35 37 39 37 39 42 45 50 53 51 48 46 46 46 47 50 50 53 57 58 57 57 46 43 51 39 42 43 36 33 30 31 30
33 35 36 37 38 38 38 38 36 35 36 39 40 42 45 49 56 58 57 54 52 49 49 49 48 47 52 53 57 61 59 58 56 49 45 42 46 40 41 36 34 34 33
33 34 36 37 37 38 38 38 36 36 39 42 45 49 53 59 60 59 56 54 51 48 49 48 50 50 50 54 59 58 64 66 62 54 44 49 46 44 44 40 36 36 36
33 34 36 36 38 39 39 36 37 40 44 49 53 58 61 59 59 58 56 55 53 51 49 50 49 52 53 53 59 63 62 68 61 57 51 50 45 46 46 43 40 40 38
32 34 35 36 39 39 36 37 42 46 50 55 59 60 61 61 60 59 58 58 57 56 55 53 55 55 56 57 56 62 68 66 66 63 59 56 49 49 48 47 43 43 41
31 33 35 38 39 37 38 43 47 52 57 60 61 61 63 63 63 63 62 62 62 61 61 61 63 62 63 64 62 60 66 66 71 65 66 58 53 51 50 49 46 45 44
32 34 37 38 37 37 42 46 51 56 61 61 63 64 66 67 67 68 69 71 71 72 74 74 71 71 72 74 71 67 65 69 70 75 66 67 57 45 52 52 49 46 47
33 35 37 36 34 40 45 50 55 60 61 64 66 68 70 70 73 74 76 77 79 81 78 72 67 71 79 84 83 75 68 66 68 76 68 58 64 55 54 55 52 50 51
33 36 34 32 37 43 48 54 59 61 64 67 68 71 73 75 78 80 81 82 79 60 45 43 43 45 53 83 91 81 71 65 70 76 76 65 57 57 48 55 52 53 53
33 32 29 33 39 45 51 56 60 63 67 69 71 75 77 80 82 83 84 73 51 34 35 36 35 31 34 56 90 88 76 69 68 74 74 71 63 46 50 53 55 57 56
30 26 30 36 42 48 53 56 60 65 70 71 74 77 81 84 85 86 71 46 29 29 29 27 20 15 18 31 63 86 77 73 69 74 78 71 70 58 59 47 50 60 58
26 26 32 38 44 49 56 57 62 69 71 72 76 80 84 86 87 75 48 27 25 24 21 17 9 4 6 15 33 71 75 74 69 73 78 80 62 53 59 50 48 59 58
23 28 34 40 47 51 56 59 64 69 71 73 78 82 86 88 82 55 30 22 21 18 15 8 2 3 8 13 26 53 70 72 69 71 80 80 70 63 67 63 47 56 58
24 30 36 43 47 53 58 61 65 70 71 74 79 84 87 88 65 40 22 22 18 14 10 5 4 6 8 15 27 44 63 67 70 75 84 80 75 74 59 60 65 51 59
25 30 38 44 48 54 58 60 65 70 70 74 79 83 88 79 51 26 23 22 16 11 7 5 6 7 8 16 27 40 51 62 68 71 83 80 74 73 67 52 69 57 58
26 32 39 45 50 55 58 60 65 68 70 74 78 83 90 70 39 23 23 21 14 9 6 6 6 8 10 16 28 35 42 50 59 70 76 78 67 77 52 65 51 44 56